Location: Recife
(8.0585°S, 34.8848°W)
Time: 09:51:45
(UTC-03:00)

Courier 1B Rocket - Pass Details

Date: 21 April 2026
Orbit: 920 x 1201 km, 28.2° (Epoch: 13 May)

Event Time Altitude Azimuth Distance (km) Brightness Sun altitude
Rises 23:29:36 0° 327° (NNW) 3,690 - -85.0°
Reaches altitude 10° 23:33:05 10° 344° (NNW) 2,696 - -84.5°
Maximum altitude 23:37:39 20° 29° (NNE) 2,021 - -83.7°
Drops below altitude 10° 23:42:06 10° 75° (ENE) 2,618 - -82.8°
Sets 23:45:24 0° 91° (E) 3,550 - -82.1°
